Simultaneous Nadir Overpasses (SNOs) Predictions

Prediction of SNOs between GOES-14 and NPP Satellite Orbit:

Table of predicted SNOs for the next 14.0 days since TLE Epoch: 11/23/2024
Index Date Time (GOES-14) GOES-14 Lat,Lon NPP Lat,Lon Distance(km) Time Diff (sec)
1 11/23/2024 08:57:30 -0.00,-108.59 0.93,-112.68 467.28 80
2 11/24/2024 08:36:09 -0.02,-108.58 -0.11,-108.17 47.18 80
3 11/26/2024 20:42:07 0.00,-108.52 -0.13,-108.96 50.86 80
4 11/27/2024 20:20:45 0.01,-108.52 0.92,-104.44 464.10 80
5 11/29/2024 08:45:17 0.02,-108.57 0.27,-109.72 131.02 80
6 11/30/2024 08:23:55 0.00,-108.57 -0.77,-105.21 383.30 80
7 12/01/2024 20:48:34 -0.03,-108.49 -0.49,-110.51 230.27 80
8 12/02/2024 20:27:13 -0.02,-108.49 0.56,-106.00 284.09 80
9 12/04/2024 08:51:43 0.05,-108.54 0.67,-111.27 311.28 80
10 12/05/2024 08:30:22 0.03,-108.53 -0.39,-106.76 202.66 80
11 12/06/2024 20:55:01 -0.06,-108.45 -0.86,-112.06 411.61 80
